Home   Weather   Crawley   Past weeks

Flag for United Kingdom Past Weather in Crawley, England, United Kingdom — Yesterday and Last 2 Weeks

Now
23 °F

Haze.


Feels Like: 23 °F
Forecast: 18 / 40 °F
Wind: 2 mph from East

Location: London / Gatwick Airport

Current Time: Jan 22, 2017 at 8:26:42 am

Latest Report: Jan 22, 2017 at 7:50 am


Visibility: 2 mi

Pressure: 30.30 "Hg

Humidity: 93%

Dew Point: 21 °F

Location of CrawleyLocation

Past Weather in Crawley — Graph

°F

Crawley Temperature Yesterday

Maximum temperature yesterday: 37 °F (at 12:20 pm)
Minimum temperature yesterday: 21 °F (at 3:50 am)
Average temperature yesterday: 29 °F

High & Low Weather Summary for the Past Weeks

 TemperatureHumidityPressure
High52 °F (Jan 7, 12:20 pm)100% (Jan 7, 6:20 am)30.69 "Hg (Jan 7, 6:20 am)
Low21 °F (Jan 18, 5:50 am)49% (Jan 17, 2:20 pm)29.27 "Hg (Jan 12, 5:50 pm)
Average38 °F88%30.23 "Hg
* Reported Jan 7 6:20 am — Jan 22 6:50 am, Crawley, Weather by CustomWeather, © 2017

Note: Actual official high and low records may vary slightly from our data, if they occured in-between our weather recording intervals... More about our weather records

Advertising

Crawley Weather History for the Previous 24 Hours

Scroll right to see more
 ConditionsComfort  
Time TempWeatherWind HumidityBarometerVisibility
6:50 am
Sun, Jan 22
21 °FHaze.3 mph100%30.30 "Hg1 mi
6:20 am23 °FIce fog.2 mph93%30.30 "Hg1 mi
5:50 am21 °FHaze.2 mph100%30.30 "Hg1 mi
5:20 am21 °FHaze.2 mph100%30.27 "Hg2 mi
4:50 am21 °FHaze.No wind100%30.30 "Hg2 mi
4:20 am23 °FHaze.No wind93%30.30 "Hg2 mi
3:50 am23 °FHaze.No wind93%30.30 "Hg2 mi
3:20 am23 °FHaze.No wind93%30.30 "Hg2 mi
2:50 am25 °FPassing clouds.2 mph93%30.30 "Hg2 mi
2:20 am27 °FPassing clouds.2 mph93%30.30 "Hg2 mi
1:50 am27 °FPassing clouds.No wind93%30.30 "Hg2 mi
1:20 am27 °FPassing clouds.2 mph93%30.30 "Hg2 mi
12:50 am27 °FPassing clouds.2 mph93%30.30 "Hg2 mi
11:50 pm
Sat, Jan 21
27 °FPassing clouds.No wind93%30.30 "Hg3 mi
11:20 pm28 °FPassing clouds.2 mph86%30.30 "Hg3 mi
10:50 pm27 °FPassing clouds.No wind93%30.30 "Hg3 mi
10:20 pm28 °FPassing clouds.No wind86%30.30 "Hg3 mi
9:50 pm28 °FPassing clouds.2 mph86%30.30 "Hg3 mi
9:20 pm30 °FPassing clouds.2 mph86%30.30 "Hg3 mi
8:50 pm28 °FPassing clouds.No wind86%30.30 "Hg4 mi
8:20 pm28 °FPassing clouds.No wind86%30.30 "Hg5 mi
7:50 pm27 °FPassing clouds.No wind93%30.30 "Hg4 mi
7:20 pm28 °FPassing clouds.2 mph93%30.30 "Hg4 mi
6:50 pm28 °FPassing clouds.3 mph86%30.30 "Hg6 mi
6:20 pm28 °FClear.2 mph86%30.30 "Hg6 mi
5:50 pm30 °FClear.3 mph80%30.27 "Hg5 mi
5:20 pm32 °FClear.3 mph75%30.27 "Hg6 mi
4:50 pm32 °FClear.3 mph75%30.27 "Hg10 mi
4:20 pm34 °FSunny.3 mph70%30.27 "Hg10 mi
3:50 pm36 °FSunny.6 mph65%30.27 "Hg10 mi
3:20 pm37 °FSunny.7 mph60%30.27 "Hg10 mi
2:50 pm37 °FSunny.7 mph56%30.27 "Hg10 mi
2:20 pm37 °FSunny.7 mph56%30.27 "Hg10 mi
1:50 pm37 °FSunny.7 mph60%30.30 "Hg10 mi
1:20 pm37 °FSunny.7 mph56%30.30 "Hg10 mi
12:50 pm37 °FPassing clouds.8 mph56%30.30 "HgN/A
12:20 pm37 °FSunny.8 mph60%30.33 "Hg10 mi
11:50 am36 °FSunny.8 mph65%30.33 "Hg10 mi
11:20 am36 °FSunny.8 mph70%30.33 "Hg10 mi
10:50 am34 °FSunny.6 mph70%30.33 "Hg10 mi
10:20 am32 °FSunny.6 mph75%30.36 "Hg10 mi
9:50 am30 °FSunny.5 mph80%30.36 "Hg10 mi
9:20 am28 °FSunny.5 mph80%30.36 "Hg10 mi
8:50 am25 °FSunny.6 mph86%30.36 "Hg10 mi
8:20 am25 °FSunny.3 mph86%30.36 "Hg10 mi
Weather by CustomWeather, © 2017

See weather overviewHow to use our weather pages